Location: Rounton
(54.4000°N, 1.3500°W)
Time: 13:33:37
(UTC+00:00)

Transit 2A Rocket - Pass Details

Date: 06 December 2021
Orbit: 584 x 918 km, 66.7° (Epoch: 17 January)

Event Time Altitude Azimuth Distance (km) Brightness Sun altitude
Rises 16:58:36 0° 313° (NW) 3,563 8.8 -10.2°
Reaches altitude 10° 17:01:49 10° 298° (WNW) 2,599 8.3 -10.6°
Maximum altitude 17:06:00 20° 254° (WSW) 1,949 8.3 -11.2°
Drops below altitude 10° 17:10:02 10° 210° (SSW) 2,492 8.5 -11.7°
Sets 17:13:04 0° 193° (SSW) 3,369 8.9 -12.2°
